sat.trackr.live / text

‹ back to catalog

SKYNET 5D

NORAD 39034 · 2012-075A

PAYLOAD ACTIVE UNKNOWN

§ Identity

Operator
Country
UK
Launch date
2012-12-19
Launch site
FRGUI
Launch vehicle
Mass (kg)
RCS (m²)
5.67

Purposes: comms

External: N2YO · Heavens-Above · Gunter

§ Orbital elements

Epoch: 2026-05-25T03:59:38.323392Z

Period
1,436.07 min
Inclination
0.0675°
Eccentricity
0.0003759
Mean motion
1.00273807 rev/d
Perigee alt
35,770.2 km
Apogee alt
35,801.9 km
Semi-major
42,164.2 km
B*
0.0000e+0
RAAN
357.7179°
Arg perigee
71.8624°
Mean anomaly
285.8522°
Rev number
4,892

§ Raw data

SKYNET 5D1 39034U 12075A   26145.16641578  .00000097  00000+0  00000+0 0  99942 39034   0.0675 357.7179 0003759  71.8624 285.8522  1.00273807 48923

JSON: /api/v1/satellites/39034 · /tle

For live sub-satellite position, see the globe view (requires WebGL).

§ Visibility from observer

Set your observer location to see the next 7 days of passes ≥ 10°. The values pass through the URL so the page stays shareable.

No JS? Fill the form by hand. The geolocation button needs JavaScript.